Preview of NWS' New Version of Forecast
This preview is not operational and should not be used for support decisions.

Regional Weather Roundup (RWR)

Issued by National Weather Service (NWS)

                            
000
ASUS44 KJAN 191610
RWRMS 

MISSISSIPPI HOURLY WEATHER ROUNDUP
NATIONAL WEATHER SERVICE JACKSON MS
1100 AM CDT FRI APR 19 2019

NOTE: "FAIR: INDICATES FEW OR NO CLOUDS BELOW 12,000 FEET WITH NO
SIGNIFICANT WEATHER AND/OR OBSTRUCTIONS TO VISIBILITY.

MSZ001>002-007>008-010>013-018>021-025>028-034>036-191700-
NORTHWEST MISSISSIPPI
  
CITY           SKY/WX    TMP DP  RH WIND       PRES   REMARKS
BATESVILLE     CLOUDY    52  43  71 NW15G29   29.76R                  
CLARKSDALE     CLOUDY    54  45  71 N13G21    29.79R                  
CLEVELAND      CLOUDY    55  44  67 NW20G28   29.81R                  
GREENWOOD      CLOUDY    52  44  74 N10       29.79R                  
GREENVILLE     CLOUDY    56  43  61 NW16      29.81R                  
OXFORD         CLOUDY    46  43  87 NW16G24   29.76R                  
TUNICA           N/A     52  43  71 N17G23    29.79S                  
WINONA         CLOUDY    48  44  85 NW5       29.77R                  
$$

MSZ003>006-009-014>017-022>024-029>033-037>039-191700-
NORTHEAST MISSISSIPPI
  
CITY           SKY/WX    TMP DP  RH WIND       PRES   REMARKS
ABERDEEN       CLOUDY    50  50 100 NW12G25   29.70R                  
COLUMBUS AFB   CLOUDY    52  46  82 NW15G26   29.68R                  
CORINTH        DRIZZLE   48  45  87 NW16G25   29.67R                  
GOLDN TRIANGLE CLOUDY    52  48  86 NW20G25   29.70R                  
STARKVILLE     CLOUDY    50  45  81 W7G18     29.73R                  
TUPELO         CLOUDY    49  43  80 NW14G29   29.69R                  
$$

MSZ040-058-191700-
CENTRAL MISSISSIPPI
  
CITY           SKY/WX    TMP DP  RH WIND       PRES   REMARKS
JACKSON INTL   CLOUDY    57  44  62 W14G21    29.80R                  
JACKSON HAWKNS PTSUNNY   58  45  62 NW14G23   29.81R                  
MADISON        PTSUNNY   54  45  71 NW7       29.79R                  
MERIDIAN KEY   CLOUDY    55  46  71 NW13G23   29.75R                  
MERIDIAN NAS   CLOUDY    55  47  74 NW16      29.73R                  
RAYMOND        PTSUNNY   57  46  67 NW15G30   29.81R                  
VICKSBURG VKS  PTSUNNY   59  48  67 NW9G20    29.85R                  
$$

MSZ059>079-191700-
SOUTH MISSISSIPPI
  
CITY           SKY/WX    TMP DP  RH WIND       PRES   REMARKS
HATTIESBURG    CLOUDY    58  47  66 NW14G24   29.80R                  
LAUREL         CLOUDY    55  46  71 NW18G26   29.79R                  
MCCOMB         FAIR      60  43  53 NW18G25   29.85R                  
NATCHEZ        PTSUNNY   57  48  72 W15       29.88R                  
PINE BELT      CLOUDY    57  47  69 NW12G24   29.80R                  
$$

MSZ080>082-191700-
COASTAL MISSISSIPPI
  
CITY           SKY/WX    TMP DP  RH WIND       PRES   REMARKS
BAY ST LOUIS   MOSUNNY   61  46  59 NW20G26   29.82R                  
BILOXI         CLOUDY    61  48  62 NW16G24   29.80R                  
PASCAGOULA     PTSUNNY   64  47  53 NW9G23    29.77S                  
GULFPORT       PTSUNNY   61  47  59 NW20G31   29.80R                  
$$

LAZ007>009-015>016-023>026-191700-
NORTHEAST LOUISIANA
  
CITY           SKY/WX    TMP DP  RH WIND       PRES   REMARKS
BASTROP        PTSUNNY   60  47  61 W12G17    29.87S                  
TALLULAH/VBURG FAIR      60  48  64 NW8G21    29.85R                  
VIDALIA        PTSUNNY   58  50  73 W10G16    29.88S                  
$$